4647 visiteurs
Prévisions par ville :
Vigilance : 5 départements le 13/07/24 à 06:00 - Voir la carte - Être alerté(e)

Paris Roissy CDG (95380) le 13/07/24 à 09:00 Choisir station

15°C 82 % N Vit. moyenne 0 km/h

Actualités :

Le 12/07/2024 à 23h23 :
Une #tornade a eu lieu vendredi à Telgte en Allemagne. Vidéo via xLordMaschine



Le 12/07/2024 à 23h11 :
Les #orages se succèdent ce vendredi sur la Suisse et le nord de l'Italie comme ici sur le secteur du lac de Côme. Photos Meteo60



Le 12/07/2024 à 23h10 :
Fort #orage sur le secteur de Locarno dans le sud de la #Suisse ce vendredi après-midi Vidéo Météo60



Relevés météo quotidiens pour la station de :

UTC
S: Synop
M: Metar
Loc T°C
(°C)
Td
(°C)
HR
(%)
Vis
(km)
Néb
(octa)
Vent
(km/h)
Pression
(mb)
Précipitations
(mm)
Temps
              MOY
10 min
DIR RAF 1h MESURE VAR SUR 3h    
S 00 h 02h 14.6 12.1 84 16 2/8 11 36 1018.0 -0.7/3h 0.0/6h - 0.0/3h
S 01 h 03h 14.6 12.6 87 - 15 35 1017.8 -0.9/3h 0.0/1h -
S 02 h 04h 13.9 12.3 90 - 18 25 1017.8 -0.7/3h 0.0/1h -
S 03 h 05h 13.5 11.9 90 16 4/8 14 25 1017.7 -0.4/3h 0.0/3h
S 04 h 06h 13.2 10.9 85 - 13 20 1017.7 -0.2/3h 0.0/1h -
S 05 h 07h 14.0 11.0 82 - 15 19 1018.3 +0.5/3h 0.0/1h -
S 06 h 08h 15.5 12.4 81 16 3/8 11 17 1018.2 +0.6/3h 0.0/12h - 0.0/3h - 0.0/24h
S 07 h 09h 16.3 13.0 80 - 13 17 1018.1 +0.6/3h 0.0/1h -
S 08 h 10h 17.0 13.7 80 - 17 22 1018.2 +0.1/3h 0.0/1h -
S 09 h 11h 17.5 12.2 71 16 3/8 17 24 1018.2 +0.1/3h 0.2/3h
S 10 h 12h 17.7 9.8 59 - 18 32 1017.9 -0.2/3h 0.0/1h -
S 11 h 13h 18.7 7.8 49 - 18 32 1017.7 -0.4/3h 0.0/1h -
S 12 h 14h 19.8 5.4 38 25 1/8 19 26 1017.1 -1.0/3h 0.2/6h - 0.0/3h
S 13 h 15h 20.6 4.6 35 - 19 31 1016.7 -1.1/3h 0.0/1h -
S 14 h 16h 21.8 4.8 32 - 22 32 1016.1 -1.5/3h 0.0/1h -
S 15 h 17h 22.8 2.3 26 - 19 35 1015.4 -1.5/3h 0.0/3h -
S 16 h 18h 18.9 8.2 49 - 7 30 1015.4 -1.3/3h 0.0/1h -
S 17 h 19h 18.1 7.8 51 - 15 26 1015.4 -0.8/3h 0.0/1h -
S 18 h 20h 17.5 6.7 49 25 0/8 11 22 1015.4 -0.3/3h 0.2/12h - 0.0/3h
S 19 h 21h 14.9 5.9 54 - - - 17 1015.8 +0.2/3h 0.0/1h -
S 20 h 22h 14.8 10.4 74 - 14 22 1016.1 +0.5/3h 0.0/1h -
S 21 h 23h 14.6 11.2 80 16 0/8 19 26 1015.8 +0.3/3h 0.0/3h
S 22 h 00h 14.6 12.1 84 - 22 32 1015.4 -0.4/3h 0.0/1h -
S 23 h 01h 14.8 12.8 87 - 24 33 1015.0 -1.1/3h 0.0/1h -

Télécharger ces données au format CSV pour le 05/05/2024

evolution des temperatures
cumul des precipitations
vent moyen et rafales
pression atmospherique

Un tiret (-) signifie que les données ne sont pas disponibles.

Passez la souris sur les pictos temps pour avoir plus de précisions. Passez les flèches sur l'icône de la direction du vent pour voir la direction précise en degrés.

Les données de l'heure en cours sont disponibles à partir de H+15 minutes.


S signifie station Synop, plus complète qu'une station Metar (M). Il y a +1h de différence entre l'heure UTC et l'heure légale en hiver et +2h en été.

Td est la mesure du point de rosée.

HR est l'humidité relative/p>

Vis est la visibilité

Néb est la nébulosité du ciel (couverture nuageuse) exprimée en octas (de 0/8 à 8/8).

Vent moy 10 min donne le vent moyen sur les 10 minutes qui précèdent le relevé.

Vent raf 1h donne la rafale maximale mesurée dans l'heure qui précède le relevé.

La colonne précipitations donne des cumuls en mm (ou litres par mètre carré) sur le laps de temps indiqué. Les stations synop / metar doivent fournir quotidiennement, à 6h TU, le cumul sur 24h. En dehors de 6h TU, la station peut fournir de manière aléatoire des cumuls sur 1h, 3h 6h, 12h. En cas de différence entre l'addition sur 24h des cumuls sur 1h ou sur 6h par exemple, et le cumul sur 24h à 6h TU, c'est ce dernier qu'il faut prendre en compte.


Les données les plus anciennes remontent à avril 2014.

Les données présentées sur cette page proviennent des stations météo officielles. Les relevés sont effectués aux normes en vigueur (anémomètre à 10m de haut, thermomètre sous abri normalisé à 2m du sol...)

Météo 60 décline toute responsabilité en cas d'absence de données, d'erreurs, de mauvaise utilisation ou interprétation et n'est pas habilité à fournir des certificats intempéries.

Paris Roissy CDG (95380)

le 13/07/24 à 09:00

Choisir station

15°C 82 %

N Vit. moyenne 0 km/h

Actualités :

Le 12/07/2024 à 23h23 :
Une #tornade a eu lieu vendredi à Telgte en Allemagne. Vidéo via xLordMaschine



Le 12/07/2024 à 23h11 :
Les #orages se succèdent ce vendredi sur la Suisse et le nord de l'Italie comme ici sur le secteur du lac de Côme. Photos Meteo60



Le 12/07/2024 à 23h10 :
Fort #orage sur le secteur de Locarno dans le sud de la #Suisse ce vendredi après-midi Vidéo Météo60